Location: Finkenbach
(49.5340°N, 8.9188°E)
Time: 20:25:56
(UTC+00:00)

Cosmos 1606 - Pass Details

Date: 17 June 2025
Orbit: 376 x 385 km, 82.5° (Epoch: 16 July)

Event Time Altitude Azimuth Distance (km) Brightness Sun altitude
Rises 23:38:55 0° 347° (NNW) 2,260 7.4 -17.0°
Reaches altitude 10° 23:40:55 10° 343° (NNW) 1,402 6.0 -17.0°
Maximum altitude 23:43:55 59° 263° (W) 443 2.2 -16.9°
Enters shadow 23:44:21 52° 222° (SW) 482 2.2 -16.9°
